Sign in

Goboko Update

Goboko is set to continue

The Goboko booking system is to continue under a new operator, a member of one of our longest-subscribed flying clubs

The new and previous operators of the site are working to ensure there will be no interruption to your booking service as the transition takes place. Of course, aircraft booking will continue to be free

Thank you for your continued commitment to Goboko

Info

Aviation weather

METAR KDAB 180053Z 19004KT 10SM FEW015 FEW075 OVC150 27/26 A3005 RMK AO2 SLP173 T02670261

TAF KDAB 172344Z 1800/1824 20005KT P6SM FEW050 SCT150 BKN250 FM181400 20005KT P6SM SCT025 SCT250 FM181700 23008KT P6SM VCTS FEW035 SCT050CB FM182300 24006KT P6SM FEW050 SCT080 BKN150

Aviation weather from ADDS. Re-check weather before flight.

-